User: anonymous   Login
Location: Unspecified
(0.0000°N, 0.0000°E)
Time: 12:35:05
(UTC+00:00)
Language:

Oscar 19 - Orbit

View from above orbital plane
View from above orbital plane
View from above satellite
View from above satellite

Ground track
Ground track

The orbit data is extracted from the following two-line orbital elements,

1 20442U 90005G   18169.88844590 +.00000012 +00000-0 +20535-4 0  9999
2 20442 098.6101 108.3696 0012435 140.7395 219.4693 14.32898040484072
Epoch (UTC): 18 June 2018 21:19:21
Eccentricity: 0.0012435
inclination: 98.6101°
perigee height: 773 km
apogee height: 791 km
right ascension of ascending node: 108.3696°
argument of perigee: 140.7395°
revolutions per day: 14.32898040
mean anomaly at epoch: 219.4693°
orbit number at epoch: 48407

The dashed part of the orbit path shows where the satellite is in the earth's shadow,  

DLR